Weather History for KBIL - April, 2014

Change the Weather History Date:

Sunday, April 6, 2014

  Actual Average Record
Temperature  
Mean Temperature 47 °F 43 °F  
Max Temperature 57 °F 55 °F 79 °F (1969)
Min Temperature 36 °F 32 °F 10 °F (1939)
Degree Days  
Heating Degree Days 18 22  
Month to date heating degree days 159 134  
Since 1 July heating degree days 6399 5944  
Cooling Degree Days 0 0  
Month to date cooling degree days 0 0  
Year to date cooling degree days 0 0  
Moisture  
Dew Point 28 °F    
Average Humidity 52    
Maximum Humidity 65    
Minimum Humidity 38    
Precipitation  
Precipitation T in 0.05 in 0.29 in (1957)
Month to date precipitation 0.06 0.29  
Year to date precipitation 4.46 2.31  
Snow  
Snow 0.00 in 0.40 in 2.80 in (1964)
Month to date snowfall 0.5 2.1  
Since 1 July snowfall 101.3 46.8  
Snow Depth 0.00 in    
Sea Level Pressure  
Sea Level Pressure 29.92 in    
Wind  
Wind Speed 16 mph (WNW)    
Max Wind Speed 36 mph    
Max Gust Speed 45 mph    
Visibility 10 miles    
Events      
T = Trace of Precipitation, MM = Missing Value Source: NWS Daily Summary

Daily Weather History Graph

Daily Weather History Graph

Search for Another Location

Airport or City:

Trip Planner

Search our weather history database for the weather conditions in past years. The results will help you decide how hot, cold, wet, or windy it might be!

Date:

Astronomy

Apr. 06, 2014 Rise Set
Actual Time 6:44 AM MDT 7:49 PM MDT
Civil Twilight 6:14 AM MDT 8:19 PM MDT
Nautical Twilight 5:37 AM MDT 8:56 PM MDT
Astronomical Twilight 4:59 AM MDT 9:35 PM MDT
Moon 11:38 AM MDT (4/6) 1:57 AM MDT (4/6)
Length of Visible Light 14h 05m
Length of Day
13h 04m
Waxing Crescent, 44% of the Moon is Illuminated
Apr 6
Waxing Crescent
Apr 7
First Quarter
Apr 15
Full
Apr 22
Last Quarter
Apr 29
New

Hourly Weather History & Observations

Time (MDT) Temp. Windchill Dew Point Humidity Pressure Visibility Wind Dir Wind Speed Gust Speed Precip Events Conditions
12:53 AM 39.0 °F 31.8 °F 28.0 °F 65% 29.90 in 10.0 mi SW 11.5 mph - N/A   Scattered Clouds
1:53 AM 37.9 °F 31.5 °F 26.1 °F 62% 29.90 in 10.0 mi SW 9.2 mph - N/A   Partly Cloudy
2:53 AM 37.9 °F 29.6 °F 24.1 °F 57% 29.88 in 10.0 mi WSW 13.8 mph - N/A   Clear
3:53 AM 37.0 °F 28.5 °F 24.1 °F 59% 29.88 in 10.0 mi WSW 13.8 mph - N/A   Partly Cloudy
4:53 AM 36.0 °F 27.1 °F 25.0 °F 64% 29.88 in 10.0 mi SW 13.8 mph - N/A   Scattered Clouds
5:53 AM 37.0 °F 28.1 °F 27.0 °F 67% 29.87 in 10.0 mi WSW 15.0 mph - N/A   Mostly Cloudy
6:53 AM 37.9 °F 31.5 °F 24.1 °F 57% 29.89 in 10.0 mi WSW 9.2 mph - N/A   Mostly Cloudy
7:53 AM 37.9 °F 30.9 °F 27.0 °F 65% 29.90 in 10.0 mi SW 10.4 mph - N/A   Mostly Cloudy
8:53 AM 39.9 °F 33.4 °F 28.0 °F 63% 29.91 in 10.0 mi SW 10.4 mph - N/A   Scattered Clouds
9:53 AM 48.0 °F - 30.0 °F 50% 29.88 in 10.0 mi WSW 8.1 mph - N/A   Partly Cloudy
10:53 AM 50.0 °F - 27.0 °F 41% 29.88 in 10.0 mi WNW 24.2 mph 29.9 mph N/A   Mostly Cloudy
11:53 AM 54.0 °F - 28.0 °F 37% 29.86 in 10.0 mi WNW 26.5 mph 36.8 mph N/A   Mostly Cloudy
12:53 PM 53.1 °F - 28.0 °F 38% 29.86 in 10.0 mi WNW 20.7 mph 29.9 mph N/A   Mostly Cloudy
1:53 PM 50.0 °F - 33.1 °F 52% 29.87 in 10.0 mi West 17.3 mph - 0.00 in   Mostly Cloudy
2:53 PM 52.0 °F - 30.9 °F 45% 29.87 in 10.0 mi NNW 15.0 mph 25.3 mph N/A   Mostly Cloudy
3:53 PM 53.1 °F - 32.0 °F 45% 29.87 in 10.0 mi NNW 15.0 mph - 0.00 in   Mostly Cloudy
4:53 PM 48.9 °F - 34.0 °F 56% 29.90 in 10.0 mi North 21.9 mph - 0.00 in   Scattered Clouds
5:53 PM 51.1 °F - 28.9 °F 43% 29.91 in 10.0 mi NNW 27.6 mph - N/A   Scattered Clouds
6:53 PM 48.9 °F - 30.0 °F 48% 29.94 in 10.0 mi NNW 19.6 mph 31.1 mph N/A   Mostly Cloudy
7:53 PM 46.0 °F 39.0 °F 28.9 °F 51% 29.99 in 10.0 mi NNW 17.3 mph - N/A   Mostly Cloudy
8:53 PM 46.0 °F 38.5 °F 28.9 °F 51% 30.02 in 10.0 mi NNW 19.6 mph - N/A   Mostly Cloudy
9:53 PM 44.1 °F 37.1 °F 28.9 °F 55% 30.04 in 10.0 mi NW 15.0 mph - N/A   Mostly Cloudy
10:53 PM 42.1 °F 33.6 °F 30.0 °F 62% 30.07 in 10.0 mi NW 18.4 mph - N/A   Mostly Cloudy
11:53 PM 41.0 °F 33.5 °F 30.9 °F 67% 30.08 in 10.0 mi NNW 13.8 mph - N/A   Mostly Cloudy